Location: *
(50.8160°S, 176.0219°W)
Time: 11:48:10
(UTC+00:00)

Cosmos 332 Rocket - Pass Details

Date: 19 May 2026
Orbit: 673 x 692 km, 74.0° (Epoch: 9 June)

Event Time Altitude Azimuth Distance (km) Brightness Sun altitude
Exits shadow 17:06:48 15° 197° (SSW) 1,845 5.7 -20.5°
Maximum altitude 17:10:48 61° 118° (ESE) 797 4.3 -19.9°
Drops below altitude 10° 17:15:38 10° 37° (NE) 2,162 6.9 -19.2°
Sets 17:17:58 0° 33° (NNE) 3,072 7.8 -18.8°
